Location: Newark
(34.9500°N, 139.9667°E)
Time: 03:04:32
(UTC+00:00)

Vanguard 2 Rocket - Pass Details

Date: 14 December 2019
Orbit: 554 x 3326 km, 32.9° (Epoch: 20 January)

Event Time Altitude Azimuth Distance (km) Brightness Sun altitude
Rises 12:25:08 0° 281° (W) 5,235 11.2 -59.5°
Reaches altitude 10° 12:29:27 10° 275° (W) 3,757 10.3 -60.4°
Enters shadow 12:30:27 13° 274° (W) 3,416 10.1 -60.6°
Maximum altitude 12:37:39 42° 209° (SSW) 1,425 - -62.0°
Drops below altitude 10° 12:42:40 10° 138° (SE) 2,300 - -63.0°
Sets 12:44:45 0° 131° (SE) 3,040 - -63.4°
